Time,TemperatureF,DewpointF,PressureIn,WindDirection,WindDirectionDegrees,WindSpeedMPH,WindSpeedGustMPH,Humidity,HourlyPrecipIn,Conditions,Clouds,dailyrainin,SoftwareType,DateUTC
2013-01-07 00:03:00,27.5,19.0,30.28,SSE,158,0.4,0.9,70,0.00,,CLR,0.00,VWS V14.01,2013-01-07 06:03:00,
2013-01-07 00:10:00,27.7,19.2,30.28,SSE,158,0.4,2.2,70,0.00,,CLR,0.00,VWS V14.01,2013-01-07 06:10:00,
2013-01-07 00:15:00,27.8,19.3,30.28,SSE,158,1.1,1.8,70,0.00,,CLR,0.00,VWS V14.01,2013-01-07 06:15:00,
2013-01-07 00:20:00,28.0,19.5,30.28,South,180,2.0,2.5,70,0.00,,CLR,0.00,VWS V14.01,2013-01-07 06:20:00,
2013-01-07 00:25:00,28.0,19.5,30.28,SSE,158,1.3,2.0,70,0.00,,CLR,0.00,VWS V14.01,2013-01-07 06:25:00,
2013-01-07 00:30:00,28.2,19.7,30.28,North,0,0.4,1.3,70,0.00,,CLR,0.00,VWS V14.01,2013-01-07 06:30:00,
2013-01-07 00:35:00,28.2,19.4,30.28,ESE,112,1.1,1.1,69,0.00,,CLR,0.00,VWS V14.01,2013-01-07 06:35:00,
2013-01-07 00:40:00,28.2,19.4,30.27,ESE,112,0.0,2.0,69,0.00,,CLR,0.00,VWS V14.01,2013-01-07 06:40:00,
2013-01-07 00:45:00,28.2,19.4,30.27,SSW,202,0.9,1.6,69,0.00,,CLR,0.00,VWS V14.01,2013-01-07 06:45:00,
2013-01-07 00:50:00,28.2,19.4,30.27,SE,135,1.8,2.2,69,0.00,,CLR,0.00,VWS V14.01,2013-01-07 06:50:00,
2013-01-07 00:55:00,28.2,19.4,30.27,SSW,202,1.6,2.0,69,0.00,,CLR,0.00,VWS V14.01,2013-01-07 06:55:00,
2013-01-07 01:04:00,28.2,19.4,30.27,SW,225,3.1,3.4,69,0.00,,CLR,0.00,VWS V14.01,2013-01-07 07:04:00,
2013-01-07 01:10:00,28.4,19.5,30.26,SSE,158,0.9,2.9,69,0.00,,CLR,0.00,VWS V14.01,2013-01-07 07:10:00,
2013-01-07 01:15:00,28.4,19.5,30.26,SW,225,2.5,2.5,69,0.00,,CLR,0.00,VWS V14.01,2013-01-07 07:15:00,
2013-01-07 01:20:00,28.6,19.7,30.26,ESE,112,0.2,2.5,69,0.00,,CLR,0.00,VWS V14.01,2013-01-07 07:20:00,
2013-01-07 01:25:00,28.6,19.7,30.26,SSW,202,5.4,5.4,69,0.00,,CLR,0.00,VWS V14.01,2013-01-07 07:25:00,
2013-01-07 01:30:00,28.6,19.4,30.26,SSE,158,1.1,5.4,68,0.00,,CLR,0.00,VWS V14.01,2013-01-07 07:30:00,
2013-01-07 01:35:00,28.6,19.4,30.27,SSE,158,0.9,2.2,68,0.00,,CLR,0.00,VWS V14.01,2013-01-07 07:35:00,
2013-01-07 01:40:00,28.6,19.4,30.26,SSE,158,0.2,1.8,68,0.00,,CLR,0.00,VWS V14.01,2013-01-07 07:40:00,
2013-01-07 01:45:00,28.4,19.2,30.26,South,180,1.6,1.6,68,0.00,,CLR,0.00,VWS V14.01,2013-01-07 07:45:00,
2013-01-07 01:50:00,28.4,19.2,30.26,SE,135,0.0,3.6,68,0.00,,CLR,0.00,VWS V14.01,2013-01-07 07:50:00,
2013-01-07 01:55:00,28.6,19.4,30.26,SSE,158,0.9,1.1,68,0.00,,CLR,0.00,VWS V14.01,2013-01-07 07:55:00,
2013-01-07 02:04:00,28.6,19.4,30.26,SSE,158,0.7,1.6,68,0.00,,CLR,0.00,VWS V14.01,2013-01-07 08:04:00,
2013-01-07 02:10:00,28.6,19.4,30.26,South,180,1.1,2.2,68,0.00,,CLR,0.00,VWS V14.01,2013-01-07 08:10:00,
2013-01-07 02:15:00,28.6,19.4,30.26,South,180,0.4,1.8,68,0.00,,CLR,0.00,VWS V14.01,2013-01-07 08:15:00,
2013-01-07 02:20:00,28.6,19.4,30.26,SE,135,1.3,3.4,68,0.00,,CLR,0.00,VWS V14.01,2013-01-07 08:20:00,
2013-01-07 02:25:00,28.7,19.5,30.26,SE,135,2.7,3.8,68,0.00,,CLR,0.00,VWS V14.01,2013-01-07 08:25:00,
2013-01-07 02:30:00,28.9,19.7,30.26,SW,225,0.9,4.0,68,0.00,,CLR,0.00,VWS V14.01,2013-01-07 08:30:00,
2013-01-07 02:35:00,29.3,20.1,30.26,SE,135,1.3,4.9,68,0.00,,CLR,0.00,VWS V14.01,2013-01-07 08:35:00,
2013-01-07 02:40:00,29.5,20.3,30.26,WSW,248,2.9,3.1,68,0.00,,CLR,0.00,VWS V14.01,2013-01-07 08:40:00,
2013-01-07 02:45:00,29.5,19.9,30.26,SE,135,1.1,2.9,67,0.00,,CLR,0.00,VWS V14.01,2013-01-07 08:45:00,
2013-01-07 02:50:00,29.6,20.0,30.26,SSW,202,2.2,2.2,67,0.00,,CLR,0.00,VWS V14.01,2013-01-07 08:50:00,
2013-01-07 02:55:00,29.6,20.0,30.26,SSW,202,1.6,2.9,67,0.00,,CLR,0.00,VWS V14.01,2013-01-07 08:55:00,
2013-01-07 03:04:00,29.5,19.9,30.26,SSE,158,0.7,0.7,67,0.00,,CLR,0.00,VWS V14.01,2013-01-07 09:04:00,
2013-01-07 03:10:00,29.3,19.7,30.25,SSE,158,1.6,2.9,67,0.00,,CLR,0.00,VWS V14.01,2013-01-07 09:10:00,
2013-01-07 03:15:00,29.3,19.7,30.25,SSE,158,0.7,1.6,67,0.00,,CLR,0.00,VWS V14.01,2013-01-07 09:15:00,
2013-01-07 03:20:00,29.1,19.5,30.25,SSW,202,1.6,1.6,67,0.00,,CLR,0.00,VWS V14.01,2013-01-07 09:20:00,
2013-01-07 03:25:00,28.9,19.3,30.24,South,180,0.9,2.7,67,0.00,,CLR,0.00,VWS V14.01,2013-01-07 09:25:00,
2013-01-07 03:30:00,28.9,19.0,30.24,SE,135,1.1,2.5,66,0.00,,CLR,0.00,VWS V14.01,2013-01-07 09:30:00,
2013-01-07 03:35:00,28.9,19.3,30.24,SSE,158,0.7,2.0,67,0.00,,CLR,0.00,VWS V14.01,2013-01-07 09:35:00,
2013-01-07 03:40:00,28.7,19.1,30.24,SSE,158,1.3,2.5,67,0.00,,CLR,0.00,VWS V14.01,2013-01-07 09:40:00,
2013-01-07 03:45:00,28.6,19.0,30.24,South,180,1.6,1.8,67,0.00,,CLR,0.00,VWS V14.01,2013-01-07 09:45:00,
2013-01-07 03:50:00,28.6,19.0,30.24,SE,135,0.4,1.6,67,0.00,,CLR,0.00,VWS V14.01,2013-01-07 09:50:00,
2013-01-07 03:55:00,28.4,18.9,30.24,SE,135,0.9,1.8,67,0.00,,CLR,0.00,VWS V14.01,2013-01-07 09:55:00,
2013-01-07 04:04:00,28.4,18.9,30.24,SSE,158,0.2,2.2,67,0.00,,CLR,0.00,VWS V14.01,2013-01-07 10:04:00,
2013-01-07 04:10:00,28.4,18.9,30.23,SSW,202,0.0,1.1,67,0.00,,CLR,0.00,VWS V14.01,2013-01-07 10:10:00,
2013-01-07 04:15:00,28.2,18.7,30.23,SE,135,0.9,2.2,67,0.00,,CLR,0.00,VWS V14.01,2013-01-07 10:15:00,
2013-01-07 04:20:00,28.2,18.7,30.23,ESE,112,0.4,1.6,67,0.00,,CLR,0.00,VWS V14.01,2013-01-07 10:20:00,
2013-01-07 04:25:00,28.2,18.7,30.23,SW,225,1.8,2.0,67,0.00,,CLR,0.00,VWS V14.01,2013-01-07 10:25:00,
2013-01-07 04:30:00,28.2,18.7,30.23,SW,225,1.1,2.2,67,0.00,,CLR,0.00,VWS V14.01,2013-01-07 10:30:00,
2013-01-07 04:35:00,28.2,18.7,30.23,South,180,0.4,1.6,67,0.00,,CLR,0.00,VWS V14.01,2013-01-07 10:35:00,
2013-01-07 04:40:00,28.0,18.5,30.23,WSW,248,2.0,3.6,67,0.00,,CLR,0.00,VWS V14.01,2013-01-07 10:40:00,
2013-01-07 04:45:00,28.0,18.5,30.23,SSW,202,3.6,3.6,67,0.00,,CLR,0.00,VWS V14.01,2013-01-07 10:45:00,
2013-01-07 04:50:00,28.2,19.0,30.23,SSE,158,1.1,3.6,68,0.00,,CLR,0.00,VWS V14.01,2013-01-07 10:50:00,
2013-01-07 04:55:00,28.2,19.0,30.23,SW,225,1.1,3.6,68,0.00,,CLR,0.00,VWS V14.01,2013-01-07 10:55:00,
2013-01-07 05:04:00,28.2,19.0,30.22,SW,225,1.1,2.5,68,0.00,,CLR,0.00,VWS V14.01,2013-01-07 11:04:00,
2013-01-07 05:10:00,28.2,19.0,30.22,SSE,158,0.4,2.5,68,0.00,,CLR,0.00,VWS V14.01,2013-01-07 11:10:00,
2013-01-07 05:15:00,28.2,19.0,30.22,NE,45,0.7,2.5,68,0.00,,CLR,0.00,VWS V14.01,2013-01-07 11:15:00,
2013-01-07 05:20:00,28.2,19.0,30.22,SE,135,0.9,1.8,68,0.00,,CLR,0.00,VWS V14.01,2013-01-07 11:20:00,
2013-01-07 05:25:00,28.2,19.0,30.22,SW,225,0.4,1.8,68,0.00,,CLR,0.00,VWS V14.01,2013-01-07 11:25:00,
2013-01-07 05:30:00,28.2,19.0,30.22,WSW,248,3.4,3.4,68,0.00,,CLR,0.00,VWS V14.01,2013-01-07 11:30:00,
2013-01-07 05:35:00,28.2,19.0,30.22,SSW,202,0.4,3.4,68,0.00,,CLR,0.00,VWS V14.01,2013-01-07 11:35:00,
2013-01-07 05:40:00,28.2,19.0,30.22,SW,225,1.8,1.8,68,0.00,,CLR,0.00,VWS V14.01,2013-01-07 11:40:00,
2013-01-07 05:45:00,28.4,19.2,30.22,West,270,1.8,1.8,68,0.00,,CLR,0.00,VWS V14.01,2013-01-07 11:45:00,
2013-01-07 05:50:00,28.2,19.0,30.22,WSW,248,0.7,3.4,68,0.00,,CLR,0.00,VWS V14.01,2013-01-07 11:50:00,
2013-01-07 05:55:00,28.4,19.2,30.22,SSW,202,1.1,2.0,68,0.00,,CLR,0.00,VWS V14.01,2013-01-07 11:55:00,
2013-01-07 06:04:00,28.2,19.0,30.22,SW,225,2.2,2.5,68,0.00,,CLR,0.00,VWS V14.01,2013-01-07 12:04:00,
2013-01-07 06:10:00,28.2,19.0,30.22,SSW,202,1.8,2.2,68,0.00,,CLR,0.00,VWS V14.01,2013-01-07 12:10:00,
2013-01-07 06:15:00,28.2,19.0,30.22,SSE,158,0.7,1.8,68,0.00,,CLR,0.00,VWS V14.01,2013-01-07 12:15:00,
2013-01-07 06:20:00,28.2,19.0,30.23,SSW,202,1.1,1.8,68,0.00,,CLR,0.00,VWS V14.01,2013-01-07 12:20:00,
2013-01-07 06:25:00,28.0,18.8,30.23,South,180,0.9,2.5,68,0.00,,CLR,0.00,VWS V14.01,2013-01-07 12:25:00,
2013-01-07 06:34:00,28.0,18.8,30.23,South,180,1.3,2.7,68,0.00,,CLR,0.00,VWS V14.01,2013-01-07 12:34:00,
2013-01-07 06:40:00,28.0,18.8,30.22,ESE,112,1.1,3.1,68,0.00,,CLR,0.00,VWS V14.01,2013-01-07 12:40:00,
2013-01-07 06:45:00,28.0,18.8,30.23,SSE,158,0.7,2.5,68,0.00,,CLR,0.00,VWS V14.01,2013-01-07 12:45:00,
2013-01-07 06:50:00,27.8,18.6,30.23,SE,135,1.6,1.6,68,0.00,,CLR,0.00,VWS V14.01,2013-01-07 12:50:00,
2013-01-07 06:55:00,27.8,18.6,30.23,South,180,2.9,2.9,68,0.00,,CLR,0.00,VWS V14.01,2013-01-07 12:55:00,
2013-01-07 07:04:00,27.8,18.6,30.23,SSW,202,1.8,3.1,68,0.00,,CLR,0.00,VWS V14.01,2013-01-07 13:04:00,
2013-01-07 07:10:00,27.8,18.6,30.23,ESE,112,0.4,1.1,68,0.00,,CLR,0.00,VWS V14.01,2013-01-07 13:10:00,
2013-01-07 07:20:00,27.7,18.5,30.22,SW,225,2.9,2.9,68,0.00,,CLR,0.00,VWS V14.01,2013-01-07 13:20:00,
2013-01-07 07:25:00,27.5,18.7,30.22,SE,135,0.2,2.9,69,0.00,,CLR,0.00,VWS V14.01,2013-01-07 13:25:00,
2013-01-07 07:30:00,27.5,18.7,30.23,South,180,0.7,1.8,69,0.00,,CLR,0.00,VWS V14.01,2013-01-07 13:30:00,
2013-01-07 07:35:00,27.5,18.7,30.22,NNE,22,0.4,2.2,69,0.00,,CLR,0.00,VWS V14.01,2013-01-07 13:35:00,
2013-01-07 07:40:00,27.5,18.7,30.22,South,180,0.7,1.1,69,0.00,,CLR,0.00,VWS V14.01,2013-01-07 13:40:00,
2013-01-07 07:45:00,27.5,18.7,30.22,SSW,202,3.1,3.1,69,0.00,,CLR,0.00,VWS V14.01,2013-01-07 13:45:00,
2013-01-07 07:50:00,27.5,18.7,30.22,South,180,1.1,3.1,69,0.00,,CLR,0.00,VWS V14.01,2013-01-07 13:50:00,
2013-01-07 07:55:00,27.5,18.7,30.22,South,180,0.4,2.5,69,0.00,,CLR,0.00,VWS V14.01,2013-01-07 13:55:00,
2013-01-07 08:04:00,27.7,18.9,30.22,SW,225,0.0,1.8,69,0.00,,CLR,0.00,VWS V14.01,2013-01-07 14:04:00,
2013-01-07 08:10:00,27.7,18.9,30.22,South,180,3.8,3.8,69,0.00,,CLR,0.00,VWS V14.01,2013-01-07 14:10:00,
2013-01-07 08:15:00,27.8,19.0,30.22,SSE,158,0.4,3.8,69,0.00,,CLR,0.00,VWS V14.01,2013-01-07 14:15:00,
2013-01-07 08:20:00,28.0,19.2,30.21,SSW,202,1.6,2.5,69,0.00,,CLR,0.00,VWS V14.01,2013-01-07 14:20:00,
2013-01-07 08:25:00,28.2,19.4,30.21,South,180,1.8,4.5,69,0.00,,CLR,0.00,VWS V14.01,2013-01-07 14:25:00,
2013-01-07 08:30:00,28.4,19.5,30.22,SW,225,1.1,3.1,69,0.00,,CLR,0.00,VWS V14.01,2013-01-07 14:30:00,
2013-01-07 08:35:00,28.7,19.8,30.22,WSW,248,1.1,2.9,69,0.00,,CLR,0.00,VWS V14.01,2013-01-07 14:35:00,
2013-01-07 08:40:00,28.9,20.0,30.22,South,180,1.1,3.4,69,0.00,,CLR,0.00,VWS V14.01,2013-01-07 14:40:00,
2013-01-07 08:45:00,29.3,20.4,30.21,WSW,248,3.1,3.4,69,0.00,,CLR,0.00,VWS V14.01,2013-01-07 14:45:00,
2013-01-07 08:50:00,29.6,20.7,30.22,SSE,158,1.8,3.1,69,0.00,,CLR,0.00,VWS V14.01,2013-01-07 14:50:00,
2013-01-07 08:55:00,29.8,20.9,30.23,SW,225,4.3,4.3,69,0.00,,CLR,0.00,VWS V14.01,2013-01-07 14:55:00,
2013-01-07 09:04:00,30.7,21.8,30.23,SW,225,3.4,3.8,69,0.00,,CLR,0.00,VWS V14.01,2013-01-07 15:04:00,
2013-01-07 09:10:00,31.4,22.1,30.23,SE,135,1.8,2.9,68,0.00,,CLR,0.00,VWS V14.01,2013-01-07 15:10:00,
2013-01-07 09:15:00,32.0,22.6,30.23,East,90,2.2,2.9,68,0.00,,CLR,0.00,VWS V14.01,2013-01-07 15:15:00,
2013-01-07 09:20:00,32.5,22.8,30.23,SW,225,1.6,3.4,67,0.00,,CLR,0.00,VWS V14.01,2013-01-07 15:20:00,
2013-01-07 09:25:00,33.2,23.5,30.22,SSE,158,2.5,5.6,67,0.00,,CLR,0.00,VWS V14.01,2013-01-07 15:25:00,
2013-01-07 09:30:00,33.4,23.3,30.22,South,180,1.3,5.1,66,0.00,,CLR,0.00,VWS V14.01,2013-01-07 15:30:00,
2013-01-07 09:35:00,34.0,23.9,30.22,SSW,202,2.9,5.6,66,0.00,,CLR,0.00,VWS V14.01,2013-01-07 15:35:00,
2013-01-07 09:40:00,34.3,23.8,30.22,WSW,248,3.4,6.0,65,0.00,,CLR,0.00,VWS V14.01,2013-01-07 15:40:00,
2013-01-07 09:45:00,34.7,23.8,30.22,WSW,248,3.4,5.8,64,0.00,,CLR,0.00,VWS V14.01,2013-01-07 15:45:00,
2013-01-07 09:50:00,34.9,24.0,30.22,SW,225,2.9,5.1,64,0.00,,CLR,0.00,VWS V14.01,2013-01-07 15:50:00,
2013-01-07 09:55:00,35.2,24.3,30.22,NNW,338,2.7,6.3,64,0.00,,CLR,0.00,VWS V14.01,2013-01-07 15:55:00,
2013-01-07 10:04:00,35.9,24.5,30.22,SSW,202,3.8,5.1,63,0.00,,CLR,0.00,VWS V14.01,2013-01-07 16:04:00,
2013-01-07 10:10:00,36.5,25.1,30.22,SSW,202,0.4,5.4,63,0.00,,CLR,0.00,VWS V14.01,2013-01-07 16:10:00,
2013-01-07 10:15:00,37.2,25.8,30.23,SE,135,4.3,4.3,63,0.00,,CLR,0.00,VWS V14.01,2013-01-07 16:15:00,
2013-01-07 10:20:00,37.7,25.9,30.23,SSE,158,2.5,5.8,62,0.00,,CLR,0.00,VWS V14.01,2013-01-07 16:20:00,
2013-01-07 10:25:00,38.3,26.4,30.23,South,180,4.0,4.5,62,0.00,,CLR,0.00,VWS V14.01,2013-01-07 16:25:00,
2013-01-07 10:30:00,38.6,26.3,30.23,NNW,338,0.9,4.7,61,0.00,,CLR,0.00,VWS V14.01,2013-01-07 16:30:00,
2013-01-07 10:35:00,38.6,26.3,30.23,SW,225,4.0,4.3,61,0.00,,CLR,0.00,VWS V14.01,2013-01-07 16:35:00,
2013-01-07 10:40:00,38.6,25.9,30.22,SSW,202,6.3,6.3,60,0.00,,CLR,0.00,VWS V14.01,2013-01-07 16:40:00,
2013-01-07 10:45:00,38.5,25.4,30.22,SSW,202,7.6,7.6,59,0.00,,CLR,0.00,VWS V14.01,2013-01-07 16:45:00,
2013-01-07 10:50:00,38.5,25.4,30.21,SSE,158,4.7,7.6,59,0.00,,CLR,0.00,VWS V14.01,2013-01-07 16:50:00,
2013-01-07 10:55:00,38.6,25.5,30.21,WSW,248,1.6,7.8,59,0.00,,CLR,0.00,VWS V14.01,2013-01-07 16:55:00,
2013-01-07 11:04:00,39.5,26.4,30.21,SSE,158,3.4,3.6,59,0.00,,CLR,0.00,VWS V14.01,2013-01-07 17:04:00,
2013-01-07 11:10:00,40.3,27.1,30.20,SE,135,4.5,6.9,59,0.00,,CLR,0.00,VWS V14.01,2013-01-07 17:10:00,
2013-01-07 11:15:00,41.0,27.4,30.20,SSW,202,7.6,7.6,58,0.00,,CLR,0.00,VWS V14.01,2013-01-07 17:15:00,
2013-01-07 11:20:00,41.5,27.4,30.20,WSW,248,3.6,7.6,57,0.00,,CLR,0.00,VWS V14.01,2013-01-07 17:20:00,
2013-01-07 11:25:00,41.5,27.4,30.20,WSW,248,4.9,4.9,57,0.00,,CLR,0.00,VWS V14.01,2013-01-07 17:25:00,
2013-01-07 11:30:00,41.9,27.4,30.20,SSW,202,3.8,4.9,56,0.00,,CLR,0.00,VWS V14.01,2013-01-07 17:30:00,
2013-01-07 11:35:00,42.4,28.3,30.19,SW,225,4.7,4.7,57,0.00,,CLR,0.00,VWS V14.01,2013-01-07 17:35:00,
2013-01-07 11:40:00,42.8,28.2,30.19,SW,225,1.1,4.7,56,0.00,,CLR,0.00,VWS V14.01,2013-01-07 17:40:00,
2013-01-07 11:45:00,43.0,28.4,30.18,SW,225,3.4,3.8,56,0.00,,CLR,0.00,VWS V14.01,2013-01-07 17:45:00,
2013-01-07 11:50:00,43.1,28.5,30.18,SE,135,2.0,6.0,56,0.00,,CLR,0.00,VWS V14.01,2013-01-07 17:50:00,
2013-01-07 11:55:00,43.3,28.2,30.18,South,180,6.7,6.7,55,0.00,,CLR,0.00,VWS V14.01,2013-01-07 17:55:00,
2013-01-07 12:04:00,43.9,28.4,30.17,ESE,112,5.1,5.1,54,0.00,,CLR,0.00,VWS V14.01,2013-01-07 18:04:00,
2013-01-07 12:10:00,44.2,28.6,30.16,SE,135,6.0,6.0,54,0.00,,CLR,0.00,VWS V14.01,2013-01-07 18:10:00,
2013-01-07 12:15:00,44.8,29.2,30.16,South,180,8.7,8.7,54,0.00,,CLR,0.00,VWS V14.01,2013-01-07 18:15:00,
2013-01-07 12:20:00,44.9,28.8,30.15,SSE,158,3.4,8.7,53,0.00,,CLR,0.00,VWS V14.01,2013-01-07 18:20:00,
2013-01-07 12:25:00,45.1,29.0,30.15,SSW,202,3.4,4.0,53,0.00,,CLR,0.00,VWS V14.01,2013-01-07 18:25:00,
2013-01-07 12:30:00,45.1,28.5,30.14,SSE,158,4.7,4.7,52,0.00,,CLR,0.00,VWS V14.01,2013-01-07 18:30:00,
2013-01-07 12:35:00,45.1,28.5,30.14,NE,45,2.7,6.3,52,0.00,,CLR,0.00,VWS V14.01,2013-01-07 18:35:00,
2013-01-07 12:40:00,45.3,28.7,30.14,SSW,202,4.9,4.9,52,0.00,,CLR,0.00,VWS V14.01,2013-01-07 18:40:00,
2013-01-07 12:45:00,45.7,29.1,30.14,SW,225,5.6,5.6,52,0.00,,CLR,0.00,VWS V14.01,2013-01-07 18:45:00,
2013-01-07 12:50:00,45.8,28.7,30.14,SE,135,6.0,7.4,51,0.00,,CLR,0.00,VWS V14.01,2013-01-07 18:50:00,
2013-01-07 12:55:00,46.2,29.1,30.13,WSW,248,2.5,6.0,51,0.00,,CLR,0.00,VWS V14.01,2013-01-07 18:55:00,
2013-01-07 13:04:00,46.6,29.0,30.13,SW,225,2.0,4.0,50,0.00,,CLR,0.00,VWS V14.01,2013-01-07 19:04:00,
2013-01-07 13:10:00,46.6,29.0,30.12,SSW,202,6.3,6.3,50,0.00,,CLR,0.00,VWS V14.01,2013-01-07 19:10:00,
2013-01-07 13:15:00,46.2,28.6,30.12,SW,225,6.7,6.7,50,0.00,,CLR,0.00,VWS V14.01,2013-01-07 19:15:00,
2013-01-07 13:20:00,45.7,27.6,30.12,SSE,158,4.7,6.7,49,0.00,,CLR,0.00,VWS V14.01,2013-01-07 19:20:00,
2013-01-07 13:25:00,45.5,27.5,30.12,SSW,202,5.4,5.4,49,0.00,,CLR,0.00,VWS V14.01,2013-01-07 19:25:00,
2013-01-07 13:30:00,45.3,27.8,30.11,SE,135,1.3,5.4,50,0.00,,CLR,0.00,VWS V14.01,2013-01-07 19:30:00,
2013-01-07 13:35:00,45.3,27.8,30.10,SSW,202,4.7,4.7,50,0.00,,CLR,0.00,VWS V14.01,2013-01-07 19:35:00,
2013-01-07 13:40:00,45.1,27.6,30.10,SSE,158,4.0,8.5,50,0.00,,CLR,0.00,VWS V14.01,2013-01-07 19:40:00,
2013-01-07 13:45:00,45.1,27.6,30.10,SE,135,3.4,4.0,50,0.00,,CLR,0.00,VWS V14.01,2013-01-07 19:45:00,
2013-01-07 13:50:00,45.3,27.8,30.10,SE,135,3.1,4.0,50,0.00,,CLR,0.00,VWS V14.01,2013-01-07 19:50:00,
2013-01-07 13:55:00,46.0,28.4,30.10,South,180,6.0,6.0,50,0.00,,CLR,0.00,VWS V14.01,2013-01-07 19:55:00,
2013-01-07 14:05:00,47.1,28.9,30.10,SSW,202,1.3,5.4,49,0.00,,CLR,0.00,VWS V14.01,2013-01-07 20:05:00,
2013-01-07 14:10:00,47.5,29.3,30.10,SSW,202,3.8,5.4,49,0.00,,CLR,0.00,VWS V14.01,2013-01-07 20:10:00,
2013-01-07 14:15:00,47.5,29.3,30.10,SSE,158,4.3,4.3,49,0.00,,CLR,0.00,VWS V14.01,2013-01-07 20:15:00,
2013-01-07 14:20:00,47.3,29.1,30.10,West,270,1.6,4.3,49,0.00,,CLR,0.00,VWS V14.01,2013-01-07 20:20:00,
2013-01-07 14:30:00,46.6,28.0,30.10,ESE,112,2.5,6.3,48,0.00,,CLR,0.00,VWS V14.01,2013-01-07 20:30:00,
2013-01-07 14:35:00,46.2,27.6,30.10,SSW,202,2.5,5.8,48,0.00,,CLR,0.00,VWS V14.01,2013-01-07 20:35:00,
2013-01-07 14:40:00,46.0,27.9,30.10,South,180,1.8,5.6,49,0.00,,CLR,0.00,VWS V14.01,2013-01-07 20:40:00,
2013-01-07 14:45:00,45.8,27.2,30.10,ESE,112,2.7,4.7,48,0.00,,CLR,0.00,VWS V14.01,2013-01-07 20:45:00,
2013-01-07 14:50:00,45.8,27.7,30.10,SW,225,1.8,3.8,49,0.00,,CLR,0.00,VWS V14.01,2013-01-07 20:50:00,
2013-01-07 14:55:00,45.7,27.6,30.11,ESE,112,2.5,4.3,49,0.00,,CLR,0.00,VWS V14.01,2013-01-07 20:55:00,
2013-01-07 15:05:00,45.5,27.5,30.10,SSW,202,2.5,2.5,49,0.00,,CLR,0.00,VWS V14.01,2013-01-07 21:05:00,
2013-01-07 15:10:00,45.5,27.5,30.10,SSW,202,4.3,4.3,49,0.00,,CLR,0.00,VWS V14.01,2013-01-07 21:10:00,
2013-01-07 15:15:00,45.5,27.5,30.10,SSW,202,2.5,4.3,49,0.00,,CLR,0.00,VWS V14.01,2013-01-07 21:15:00,
2013-01-07 15:20:00,45.5,27.5,30.10,SSE,158,4.0,4.0,49,0.00,,CLR,0.00,VWS V14.01,2013-01-07 21:20:00,
2013-01-07 15:25:00,45.5,27.5,30.10,SW,225,1.3,5.4,49,0.00,,CLR,0.00,VWS V14.01,2013-01-07 21:25:00,
2013-01-07 15:30:00,45.5,27.5,30.10,SW,225,2.7,4.7,49,0.00,,CLR,0.00,VWS V14.01,2013-01-07 21:30:00,
2013-01-07 15:35:00,45.3,27.3,30.10,SSW,202,2.5,4.5,49,0.00,,CLR,0.00,VWS V14.01,2013-01-07 21:35:00,
2013-01-07 15:40:00,45.1,27.1,30.10,SSE,158,2.7,4.0,49,0.00,,CLR,0.00,VWS V14.01,2013-01-07 21:40:00,
2013-01-07 15:45:00,45.3,27.3,30.09,SSE,158,5.1,6.5,49,0.00,,CLR,0.00,VWS V14.01,2013-01-07 21:45:00,
2013-01-07 15:50:00,45.3,27.3,30.09,SSE,158,3.6,5.6,49,0.00,,CLR,0.00,VWS V14.01,2013-01-07 21:50:00,
2013-01-07 15:55:00,45.3,27.3,30.09,SSE,158,4.5,4.5,49,0.00,,CLR,0.00,VWS V14.01,2013-01-07 21:55:00,
2013-01-07 16:05:00,45.1,27.1,30.09,WSW,248,3.1,3.1,49,0.00,,CLR,0.00,VWS V14.01,2013-01-07 22:05:00,
2013-01-07 16:10:00,45.1,27.1,30.09,SSW,202,5.1,5.1,49,0.00,,CLR,0.00,VWS V14.01,2013-01-07 22:10:00,
2013-01-07 16:15:00,44.9,26.9,30.09,SSW,202,1.3,5.1,49,0.00,,CLR,0.00,VWS V14.01,2013-01-07 22:15:00,
2013-01-07 16:20:00,44.9,26.9,30.09,SE,135,3.6,4.7,49,0.00,,CLR,0.00,VWS V14.01,2013-01-07 22:20:00,
2013-01-07 16:25:00,44.8,26.8,30.09,SSW,202,3.4,3.6,49,0.00,,CLR,0.00,VWS V14.01,2013-01-07 22:25:00,
2013-01-07 16:30:00,44.8,26.8,30.08,South,180,2.5,3.4,49,0.00,,CLR,0.00,VWS V14.01,2013-01-07 22:30:00,
2013-01-07 16:35:00,44.6,26.6,30.08,SSW,202,1.8,4.0,49,0.00,,CLR,0.00,VWS V14.01,2013-01-07 22:35:00,
2013-01-07 16:40:00,44.4,26.5,30.08,SE,135,2.2,3.6,49,0.00,,CLR,0.00,VWS V14.01,2013-01-07 22:40:00,
2013-01-07 16:45:00,44.0,26.6,30.08,SE,135,0.4,2.5,50,0.00,,CLR,0.00,VWS V14.01,2013-01-07 22:45:00,
2013-01-07 16:50:00,43.9,26.5,30.08,SSW,202,3.1,3.1,50,0.00,,CLR,0.00,VWS V14.01,2013-01-07 22:50:00,
2013-01-07 16:55:00,43.7,26.3,30.08,SSW,202,1.1,3.1,50,0.00,,CLR,0.00,VWS V14.01,2013-01-07 22:55:00,
2013-01-07 17:05:00,43.3,25.9,30.07,ESE,112,1.6,2.5,50,0.00,,CLR,0.00,VWS V14.01,2013-01-07 23:05:00,
2013-01-07 17:10:00,43.0,26.1,30.08,South,180,3.4,3.4,51,0.00,,CLR,0.00,VWS V14.01,2013-01-07 23:10:00,
2013-01-07 17:15:00,42.8,25.9,30.08,East,90,2.5,2.5,51,0.00,,CLR,0.00,VWS V14.01,2013-01-07 23:15:00,
2013-01-07 17:20:00,42.6,25.8,30.08,SSW,202,1.8,5.4,51,0.00,,CLR,0.00,VWS V14.01,2013-01-07 23:20:00,
2013-01-07 17:25:00,42.6,25.8,30.08,SE,135,1.8,5.4,51,0.00,,CLR,0.00,VWS V14.01,2013-01-07 23:25:00,
2013-01-07 17:30:00,42.4,26.0,30.08,SE,135,2.0,6.3,52,0.00,,CLR,0.00,VWS V14.01,2013-01-07 23:30:00,
2013-01-07 17:35:00,42.4,26.0,30.07,WSW,248,2.0,4.7,52,0.00,,CLR,0.00,VWS V14.01,2013-01-07 23:35:00,
2013-01-07 17:40:00,42.2,25.9,30.07,SSE,158,3.4,5.1,52,0.00,,CLR,0.00,VWS V14.01,2013-01-07 23:40:00,
2013-01-07 17:45:00,42.1,25.8,30.07,SE,135,4.3,4.3,52,0.00,,CLR,0.00,VWS V14.01,2013-01-07 23:45:00,
2013-01-07 17:50:00,41.9,25.6,30.07,SSW,202,2.7,4.3,52,0.00,,CLR,0.00,VWS V14.01,2013-01-07 23:50:00,
2013-01-07 17:55:00,41.7,25.4,30.07,SW,225,2.0,2.7,52,0.00,,CLR,0.00,VWS V14.01,2013-01-07 23:55:00,
2013-01-07 18:05:00,41.3,25.0,30.08,SSW,202,2.7,4.7,52,0.00,,CLR,0.00,VWS V14.01,2013-01-08 00:05:00,
2013-01-07 18:10:00,41.2,25.4,30.07,WSW,248,0.9,2.7,53,0.00,,CLR,0.00,VWS V14.01,2013-01-08 00:10:00,
2013-01-07 18:15:00,41.2,25.4,30.07,South,180,2.0,2.5,53,0.00,,CLR,0.00,VWS V14.01,2013-01-08 00:15:00,
2013-01-07 18:20:00,40.8,25.0,30.07,SSE,158,1.1,2.5,53,0.00,,CLR,0.00,VWS V14.01,2013-01-08 00:20:00,
2013-01-07 18:25:00,40.4,24.6,30.08,South,180,2.0,2.0,53,0.00,,CLR,0.00,VWS V14.01,2013-01-08 00:25:00,
2013-01-07 18:30:00,40.4,24.6,30.07,SE,135,1.8,2.9,53,0.00,,CLR,0.00,VWS V14.01,2013-01-08 00:30:00,
2013-01-07 18:35:00,40.1,24.4,30.07,SSW,202,1.8,1.8,53,0.00,,CLR,0.00,VWS V14.01,2013-01-08 00:35:00,
2013-01-07 18:40:00,39.9,24.2,30.07,SW,225,2.5,2.5,53,0.00,,CLR,0.00,VWS V14.01,2013-01-08 00:40:00,
2013-01-07 18:45:00,39.7,24.0,30.07,South,180,2.2,3.6,53,0.00,,CLR,0.00,VWS V14.01,2013-01-08 00:45:00,
2013-01-07 18:50:00,39.5,23.8,30.07,SSE,158,1.1,2.9,53,0.00,,CLR,0.00,VWS V14.01,2013-01-08 00:50:00,
2013-01-07 18:55:00,39.2,24.0,30.06,SE,135,1.3,2.7,54,0.00,,CLR,0.00,VWS V14.01,2013-01-08 00:55:00,
2013-01-07 19:05:00,39.0,23.8,30.07,SSW,202,0.9,3.6,54,0.00,,CLR,0.00,VWS V14.01,2013-01-08 01:05:00,
2013-01-07 19:10:00,39.0,23.8,30.07,South,180,0.2,2.5,54,0.00,,CLR,0.00,VWS V14.01,2013-01-08 01:10:00,
2013-01-07 19:15:00,38.8,23.6,30.06,SW,225,0.7,3.4,54,0.00,,CLR,0.00,VWS V14.01,2013-01-08 01:15:00,
2013-01-07 19:20:00,38.6,23.4,30.06,SSE,158,0.9,3.4,54,0.00,,CLR,0.00,VWS V14.01,2013-01-08 01:20:00,
2013-01-07 19:25:00,38.6,23.8,30.07,WSW,248,1.3,1.3,55,0.00,,CLR,0.00,VWS V14.01,2013-01-08 01:25:00,
2013-01-07 19:30:00,38.5,23.8,30.07,SW,225,1.6,1.6,55,0.00,,CLR,0.00,VWS V14.01,2013-01-08 01:30:00,
2013-01-07 19:35:00,38.3,23.6,30.07,South,180,0.4,2.7,55,0.00,,CLR,0.00,VWS V14.01,2013-01-08 01:35:00,
2013-01-07 19:40:00,38.1,23.4,30.06,SSW,202,1.6,2.0,55,0.00,,CLR,0.00,VWS V14.01,2013-01-08 01:40:00,
2013-01-07 19:45:00,37.9,23.2,30.06,SE,135,3.4,3.4,55,0.00,,CLR,0.00,VWS V14.01,2013-01-08 01:45:00,
2013-01-07 19:50:00,37.7,23.4,30.06,SSE,158,1.1,2.9,56,0.00,,CLR,0.00,VWS V14.01,2013-01-08 01:50:00,
2013-01-07 19:55:00,37.7,23.4,30.06,SSE,158,0.0,1.6,56,0.00,,CLR,0.00,VWS V14.01,2013-01-08 01:55:00,
2013-01-07 20:05:00,37.4,23.1,30.06,SE,135,2.5,3.4,56,0.00,,CLR,0.00,VWS V14.01,2013-01-08 02:05:00,
2013-01-07 20:10:00,37.2,23.0,30.06,SSE,158,0.9,3.4,56,0.00,,CLR,0.00,VWS V14.01,2013-01-08 02:10:00,
2013-01-07 20:15:00,37.2,23.4,30.06,South,180,0.9,3.1,57,0.00,,CLR,0.00,VWS V14.01,2013-01-08 02:15:00,
2013-01-07 20:20:00,37.0,23.2,30.06,West,270,2.5,2.5,57,0.00,,CLR,0.00,VWS V14.01,2013-01-08 02:20:00,
2013-01-07 20:25:00,37.0,23.2,30.06,NNE,22,2.5,2.9,57,0.00,,CLR,0.00,VWS V14.01,2013-01-08 02:25:00,
2013-01-07 20:30:00,37.0,23.2,30.06,SE,135,2.5,2.5,57,0.00,,CLR,0.00,VWS V14.01,2013-01-08 02:30:00,
2013-01-07 20:35:00,36.8,23.4,30.06,WNW,292,0.0,2.5,58,0.00,,CLR,0.00,VWS V14.01,2013-01-08 02:35:00,
2013-01-07 20:40:00,36.8,23.4,30.06,SSE,158,0.4,1.1,58,0.00,,CLR,0.00,VWS V14.01,2013-01-08 02:40:00,
2013-01-07 20:45:00,36.8,23.4,30.06,NNW,338,0.0,1.1,58,0.00,,CLR,0.00,VWS V14.01,2013-01-08 02:45:00,
2013-01-07 20:50:00,36.8,23.4,30.06,South,180,1.1,1.8,58,0.00,,CLR,0.00,VWS V14.01,2013-01-08 02:50:00,
2013-01-07 20:55:00,36.8,23.4,30.06,SSE,158,0.7,1.8,58,0.00,,CLR,0.00,VWS V14.01,2013-01-08 02:55:00,
2013-01-07 21:05:00,37.0,24.0,30.06,ESE,112,1.1,3.4,59,0.00,,CLR,0.00,VWS V14.01,2013-01-08 03:05:00,
2013-01-07 21:10:00,37.2,24.2,30.06,West,270,0.4,1.1,59,0.00,,CLR,0.00,VWS V14.01,2013-01-08 03:10:00,
2013-01-07 21:15:00,37.4,24.4,30.06,SSW,202,1.1,3.4,59,0.00,,CLR,0.00,VWS V14.01,2013-01-08 03:15:00,
2013-01-07 21:20:00,37.6,24.6,30.06,WSW,248,2.5,3.1,59,0.00,,CLR,0.00,VWS V14.01,2013-01-08 03:20:00,
2013-01-07 21:25:00,37.6,24.6,30.06,SW,225,1.6,1.6,59,0.00,,CLR,0.00,VWS V14.01,2013-01-08 03:25:00,
2013-01-07 21:35:00,37.7,24.7,30.06,SW,225,0.7,2.0,59,0.00,,CLR,0.00,VWS V14.01,2013-01-08 03:35:00,
2013-01-07 21:40:00,37.7,24.7,30.06,WSW,248,0.9,1.8,59,0.00,,CLR,0.00,VWS V14.01,2013-01-08 03:40:00,
2013-01-07 21:45:00,37.7,24.7,30.07,SW,225,1.6,2.5,59,0.00,,CLR,0.00,VWS V14.01,2013-01-08 03:45:00,
2013-01-07 21:55:00,37.6,25.0,30.06,SW,225,2.2,3.4,60,0.00,,CLR,0.00,VWS V14.01,2013-01-08 03:55:00,
2013-01-07 22:05:00,37.6,25.0,30.06,WSW,248,0.4,1.6,60,0.00,,CLR,0.00,VWS V14.01,2013-01-08 04:05:00,
2013-01-07 22:10:00,37.6,25.0,30.06,SW,225,1.3,1.3,60,0.00,,CLR,0.00,VWS V14.01,2013-01-08 04:10:00,
2013-01-07 22:15:00,37.6,25.0,30.07,SSE,158,1.1,1.3,60,0.00,,CLR,0.00,VWS V14.01,2013-01-08 04:15:00,
2013-01-07 22:20:00,37.6,25.0,30.06,SSE,158,1.6,1.6,60,0.00,,CLR,0.00,VWS V14.01,2013-01-08 04:20:00,
2013-01-07 22:25:00,37.6,25.4,30.06,WSW,248,1.1,1.1,61,0.00,,CLR,0.00,VWS V14.01,2013-01-08 04:25:00,
2013-01-07 22:35:00,37.6,25.4,30.06,South,180,1.8,3.4,61,0.00,,CLR,0.00,VWS V14.01,2013-01-08 04:35:00,
2013-01-07 22:40:00,37.6,25.4,30.06,SSW,202,0.2,1.8,61,0.00,,CLR,0.00,VWS V14.01,2013-01-08 04:40:00,
2013-01-07 22:45:00,37.6,25.4,30.06,SE,135,1.8,2.7,61,0.00,,CLR,0.00,VWS V14.01,2013-01-08 04:45:00,
2013-01-07 22:50:00,37.4,25.2,30.06,SSW,202,2.2,2.2,61,0.00,,CLR,0.00,VWS V14.01,2013-01-08 04:50:00,
2013-01-07 22:55:00,37.4,25.6,30.06,SW,225,1.1,2.2,62,0.00,,CLR,0.00,VWS V14.01,2013-01-08 04:55:00,
2013-01-07 23:05:00,37.2,25.4,30.05,SW,225,1.1,3.1,62,0.00,,CLR,0.00,VWS V14.01,2013-01-08 05:05:00,
2013-01-07 23:10:00,37.2,25.4,30.05,SE,135,1.6,3.4,62,0.00,,CLR,0.00,VWS V14.01,2013-01-08 05:10:00,
2013-01-07 23:15:00,37.2,25.4,30.05,SSE,158,0.9,2.0,62,0.00,,CLR,0.00,VWS V14.01,2013-01-08 05:15:00,
2013-01-07 23:20:00,37.2,25.8,30.05,SSW,202,2.0,2.2,63,0.00,,CLR,0.00,VWS V14.01,2013-01-08 05:20:00,
2013-01-07 23:25:00,37.0,25.6,30.05,SSW,202,2.0,3.4,63,0.00,,CLR,0.00,VWS V14.01,2013-01-08 05:25:00,
2013-01-07 23:30:00,36.8,25.4,30.05,SE,135,2.0,2.0,63,0.00,,CLR,0.00,VWS V14.01,2013-01-08 05:30:00,
2013-01-07 23:35:00,36.8,25.4,30.05,SSW,202,1.3,2.0,63,0.00,,CLR,0.00,VWS V14.01,2013-01-08 05:35:00,
2013-01-07 23:40:00,36.8,25.4,30.05,South,180,1.1,1.6,63,0.00,,CLR,0.00,VWS V14.01,2013-01-08 05:40:00,
2013-01-07 23:45:00,36.8,25.4,30.05,SE,135,3.6,3.6,63,0.00,,CLR,0.00,VWS V14.01,2013-01-08 05:45:00,
2013-01-07 23:50:00,36.8,25.4,30.05,South,180,1.8,3.6,63,0.00,,CLR,0.00,VWS V14.01,2013-01-08 05:50:00,
2013-01-07 23:55:00,36.7,25.3,30.05,ESE,112,1.1,2.0,63,0.00,,CLR,0.00,VWS V14.01,2013-01-08 05:55:00,